| time (UTC) | temp C | wind direction | speed KPH | gust KPH | rain 1hr cm | rain 24hr cm | rain mn cm | humidity % | barometer mb |
| 20260831225102 | 22 | 77 | 3.2 | 9.7 | 0.00 | 0.00 | 0.00 | 67 | 1022.8 |
| 20260831224602 | 22 | 77 | 3.2 | 9.7 | 0.00 | 0.00 | 0.00 | 68 | 1022.8 |
| 20260831224103 | 22 | 77 | 3.2 | 9.7 | 0.00 | 0.00 | 0.00 | 67 | 1022.8 |
| 20260831223603 | 22 | 77 | 3.2 | 9.7 | 0.00 | 0.00 | 0.00 | 66 | 1022.8 |
| 20260831223102 | 22 | 77 | 3.2 | 9.7 | 0.00 | 0.00 | 0.00 | 66 | 1022.8 |
| 20260831222602 | 23 | 77 | 3.2 | 9.7 | 0.00 | 0.00 | 0.00 | 64 | 1022.8 |
| 20260831221603 | 23 | 77 | 3.2 | 9.7 | 0.00 | 0.00 | 0.00 | 64 | 1022.7 |
| 20260831220602 | 23 | 77 | 3.2 | 9.7 | 0.00 | 0.00 | 0.00 | 63 | 1022.7 |
| 20260831215602 | 23 | 77 | 3.2 | 9.7 | 0.00 | 0.00 | 0.00 | 61 | 1022.8 |
| 20260831214603 | 24 | 77 | 3.2 | 9.7 | 0.00 | 0.00 | 0.00 | 60 | 1022.7 |
| 20260831214103 | 24 | 77 | 3.2 | 9.7 | 0.00 | 0.00 | 0.00 | 61 | 1022.7 |
| 20260831213604 | 23 | 77 | 3.2 | 9.7 | 0.00 | 0.00 | 0.00 | 62 | 1022.7 |
| 20260831213103 | 23 | 77 | 3.2 | 9.7 | 0.00 | 0.00 | 0.00 | 64 | 1022.7 |
| 20260831212603 | 23 | 77 | 3.2 | 9.7 | 0.00 | 0.00 | 0.00 | 66 | 1022.8 |
| 20260831211604 | 23 | 77 | 3.2 | 9.7 | 0.00 | 0.00 | 0.00 | 63 | 1022.8 |
| 20260831211102 | 23 | 77 | 3.2 | 9.7 | 0.00 | 0.00 | 0.00 | 63 | 1022.8 |
| 20260831210603 | 23 | 77 | 3.2 | 9.7 | 0.00 | 0.00 | 0.00 | 64 | 1022.9 |
| 20260831210103 | 23 | 77 | 3.2 | 9.7 | 0.00 | 0.00 | 0.00 | 64 | 1022.9 |
| 20260831205603 | 23 | 77 | 3.2 | 9.7 | 0.00 | 0.00 | 0.00 | 63 | 1022.9 |
| 20260831204603 | 23 | 77 | 3.2 | 9.7 | 0.00 | 0.00 | 0.00 | 64 | 1023.0 |
| 20260831203603 | 23 | 77 | 3.2 | 9.7 | 0.00 | 0.00 | 0.00 | 64 | 1023.1 |
| 20260831203103 | 23 | 77 | 3.2 | 9.7 | 0.00 | 0.00 | 0.00 | 63 | 1023.1 |
| 20260831202603 | 24 | 77 | 3.2 | 9.7 | 0.00 | 0.00 | 0.00 | 63 | 1023.1 |
| 20260831202103 | 24 | 77 | 3.2 | 9.7 | 0.00 | 0.00 | 0.00 | 62 | 1023.2 |
| 20260831201603 | 24 | 77 | 3.2 | 9.7 | 0.00 | 0.00 | 0.00 | 61 | 1023.1 |
| 20260831201103 | 25 | 77 | 3.2 | 9.7 | 0.00 | 0.00 | 0.00 | 60 | 1023.2 |
| 20260831200602 | 24 | 77 | 3.2 | 9.7 | 0.00 | 0.00 | 0.00 | 59 | 1023.2 |
| 20260831195602 | 24 | 77 | 3.2 | 9.7 | 0.00 | 0.00 | 0.00 | 60 | 1023.4 |
| 20260831195103 | 24 | 77 | 3.2 | 9.7 | 0.00 | 0.00 | 0.00 | 61 | 1023.4 |
| 20260831194603 | 23 | 77 | 3.2 | 9.7 | 0.00 | 0.00 | 0.00 | 61 | 1023.5 |
| 20260831194103 | 23 | 77 | 3.2 | 9.7 | 0.00 | 0.00 | 0.00 | 61 | 1023.5 |
| 20260831193103 | 23 | 77 | 3.2 | 9.7 | 0.00 | 0.00 | 0.00 | 63 | 1023.7 |
| 20260831192603 | 23 | 77 | 3.2 | 9.7 | 0.00 | 0.00 | 0.00 | 62 | 1023.8 |
| 20260831192103 | 23 | 77 | 3.2 | 9.7 | 0.00 | 0.00 | 0.00 | 62 | 1023.8 |
| 20260831191603 | 23 | 77 | 3.2 | 9.7 | 0.00 | 0.00 | 0.00 | 61 | 1023.8 |
| 20260831191102 | 23 | 77 | 3.2 | 9.7 | 0.00 | 0.00 | 0.00 | 61 | 1023.8 |
| 20260831190602 | 24 | 77 | 3.2 | 9.7 | 0.00 | 0.00 | 0.00 | 60 | 1023.9 |
| 20260831185602 | 23 | 77 | 3.2 | 9.7 | 0.00 | 0.00 | 0.00 | 61 | 1024.0 |
| 20260831184603 | 23 | 77 | 3.2 | 9.7 | 0.00 | 0.00 | 0.00 | 59 | 1024.0 |
| 20260831184103 | 23 | 77 | 3.2 | 9.7 | 0.00 | 0.00 | 0.00 | 59 | 1023.9 |
| 20260831183103 | 23 | 77 | 3.2 | 9.7 | 0.00 | 0.00 | 0.00 | 60 | 1024.1 |
| 20260831182602 | 23 | 77 | 3.2 | 9.7 | 0.00 | 0.00 | 0.00 | 57 | 1024.1 |
| 20260831182103 | 23 | 77 | 3.2 | 9.7 | 0.00 | 0.00 | 0.00 | 61 | 1024.1 |
| 20260831181103 | 23 | 77 | 3.2 | 9.7 | 0.00 | 0.00 | 0.00 | 62 | 1024.1 |
| 20260831180603 | 23 | 77 | 3.2 | 9.7 | 0.00 | 0.00 | 0.00 | 59 | 1024.0 |
| 20260831175603 | 23 | 77 | 3.2 | 9.7 | 0.00 | 0.00 | 0.00 | 61 | 1024.1 |
| 20260831175103 | 23 | 77 | 3.2 | 9.7 | 0.00 | 0.00 | 0.00 | 60 | 1024.1 |
| 20260831174602 | 23 | 77 | 3.2 | 9.7 | 0.00 | 0.00 | 0.00 | 62 | 1024.2 |
| 20260831174103 | 23 | 77 | 3.2 | 9.7 | 0.00 | 0.00 | 0.00 | 61 | 1024.3 |
| 20260831173603 | 23 | 77 | 3.2 | 9.7 | 0.00 | 0.00 | 0.00 | 63 | 1024.3 |
| 20260831173103 | 23 | 77 | 3.2 | 9.7 | 0.00 | 0.00 | 0.00 | 61 | 1024.3 |
| 20260831172602 | 23 | 77 | 3.2 | 9.7 | 0.00 | 0.00 | 0.00 | 61 | 1024.4 |
| 20260831172103 | 23 | 77 | 3.2 | 9.7 | 0.00 | 0.00 | 0.00 | 60 | 1024.5 |
| 20260831171602 | 23 | 77 | 3.2 | 9.7 | 0.00 | 0.00 | 0.00 | 61 | 1024.6 |
| 20260831171103 | 23 | 77 | 3.2 | 9.7 | 0.00 | 0.00 | 0.00 | 57 | 1024.6 |
| 20260831170602 | 23 | 77 | 3.2 | 9.7 | 0.00 | 0.00 | 0.00 | 55 | 1024.6 |
| 20260831165103 | 22 | 77 | 3.2 | 9.7 | 0.00 | 0.00 | 0.00 | 57 | 1024.7 |
| 20260831164603 | 22 | 77 | 3.2 | 9.7 | 0.00 | 0.00 | 0.00 | 56 | 1024.7 |
| 20260831164103 | 22 | 77 | 3.2 | 9.7 | 0.00 | 0.00 | 0.00 | 60 | 1024.8 |
| 20260831163602 | 22 | 77 | 3.2 | 9.7 | 0.00 | 0.00 | 0.00 | 61 | 1024.8 |
| 20260831162603 | 21 | 77 | 3.2 | 9.7 | 0.00 | 0.00 | 0.00 | 67 | 1024.9 |
| 20260831162103 | 21 | 77 | 3.2 | 9.7 | 0.00 | 0.00 | 0.00 | 66 | 1024.9 |
| 20260831161603 | 21 | 77 | 3.2 | 9.7 | 0.00 | 0.00 | 0.00 | 67 | 1024.9 |
| 20260831161103 | 20 | 77 | 3.2 | 9.7 | 0.00 | 0.00 | 0.00 | 68 | 1024.9 |
| 20260831160603 | 20 | 77 | 3.2 | 9.7 | 0.00 | 0.00 | 0.00 | 70 | 1025.0 |
| 20260831160103 | 20 | 77 | 3.2 | 9.7 | 0.00 | 0.00 | 0.00 | 70 | 1024.9 |
| 20260831155602 | 20 | 77 | 3.2 | 9.7 | 0.00 | 0.00 | 0.00 | 71 | 1025.0 |
| 20260831154102 | 18 | 77 | 3.2 | 9.7 | 0.00 | 0.00 | 0.00 | 75 | 1025.0 |
| 20260831152602 | 18 | 77 | 3.2 | 9.7 | 0.00 | 0.00 | 0.00 | 77 | 1024.9 |
| 20260831152102 | 18 | 77 | 3.2 | 9.7 | 0.00 | 0.00 | 0.00 | 77 | 1024.9 |
| 20260831151602 | 18 | 77 | 3.2 | 9.7 | 0.00 | 0.00 | 0.00 | 77 | 1025.0 |
| 20260831151103 | 17 | 77 | 3.2 | 9.7 | 0.00 | 0.00 | 0.00 | 77 | 1025.0 |
| 20260831145602 | 17 | 77 | 3.2 | 9.7 | 0.00 | 0.00 | 0.00 | 82 | 1025.0 |
| 20260831145102 | 16 | 77 | 3.2 | 9.7 | 0.00 | 0.00 | 0.00 | 81 | 1025.0 |
| 20260831144603 | 16 | 77 | 3.2 | 9.7 | 0.00 | 0.00 | 0.00 | 82 | 1025.0 |
| 20260831144103 | 16 | 77 | 3.2 | 9.7 | 0.00 | 0.00 | 0.00 | 82 | 1025.0 |
| 20260831143602 | 16 | 77 | 3.2 | 9.7 | 0.00 | 0.00 | 0.00 | 82 | 1025.0 |
| 20260831143103 | 16 | 77 | 3.2 | 9.7 | 0.00 | 0.00 | 0.00 | 82 | 1024.9 |
| 20260831142602 | 16 | 77 | 3.2 | 9.7 | 0.00 | 0.00 | 0.00 | 83 | 1024.9 |
| 20260831142103 | 16 | 77 | 3.2 | 9.7 | 0.00 | 0.00 | 0.00 | 83 | 1024.9 |
| 20260831141603 | 16 | 77 | 3.2 | 9.7 | 0.00 | 0.00 | 0.00 | 84 | 1024.8 |
| 20260831140602 | 15 | 77 | 3.2 | 9.7 | 0.00 | 0.00 | 0.00 | 85 | 1024.9 |
| 20260831135603 | 15 | 77 | 3.2 | 9.7 | 0.00 | 0.00 | 0.00 | 88 | 1024.8 |
| 20260831135103 | 14 | 77 | 3.2 | 9.7 | 0.00 | 0.00 | 0.00 | 90 | 1024.8 |
| 20260831134603 | 14 | 77 | 3.2 | 9.7 | 0.00 | 0.00 | 0.00 | 92 | 1024.8 |
| 20260831133103 | 13 | 77 | 3.2 | 9.7 | 0.00 | 0.00 | 0.00 | 92 | 1024.8 |
| 20260831132602 | 13 | 77 | 3.2 | 9.7 | 0.00 | 0.00 | 0.00 | 92 | 1024.8 |
| 20260831132102 | 13 | 77 | 3.2 | 9.7 | 0.00 | 0.00 | 0.00 | 92 | 1024.8 |
| 20260831125603 | 13 | 77 | 3.2 | 9.7 | 0.00 | 0.00 | 0.00 | 91 | 1024.7 |
| 20260831125102 | 13 | 77 | 3.2 | 9.7 | 0.00 | 0.00 | 0.00 | 92 | 1024.6 |
| 20260831124603 | 13 | 77 | 3.2 | 9.7 | 0.00 | 0.00 | 0.00 | 92 | 1024.6 |
| 20260831124102 | 13 | 77 | 3.2 | 9.7 | 0.00 | 0.00 | 0.00 | 91 | 1024.7 |
| 20260831123602 | 13 | 77 | 3.2 | 9.7 | 0.00 | 0.00 | 0.00 | 91 | 1024.7 |
| 20260831123103 | 13 | 77 | 3.2 | 9.7 | 0.00 | 0.00 | 0.00 | 91 | 1024.8 |
| 20260831122103 | 13 | 77 | 3.2 | 9.7 | 0.00 | 0.00 | 0.00 | 91 | 1024.8 |
| 20260831121603 | 13 | 77 | 3.2 | 9.7 | 0.00 | 0.00 | 0.00 | 92 | 1024.7 |
| 20260831120602 | 13 | 77 | 3.2 | 9.7 | 0.00 | 0.00 | 0.00 | 93 | 1024.5 |
| 20260831115603 | 13 | 77 | 3.2 | 9.7 | 0.00 | 0.00 | 0.00 | 93 | 1024.4 |
| 20260831115103 | 13 | 77 | 3.2 | 9.7 | 0.00 | 0.00 | 0.00 | 93 | 1024.5 |
| 20260831114603 | 13 | 77 | 3.2 | 9.7 | 0.00 | 0.00 | 0.00 | 93 | 1024.5 |
| 20260831114103 | 13 | 77 | 3.2 | 9.7 | 0.00 | 0.00 | 0.00 | 93 | 1024.5 |
| 20260831113103 | 13 | 77 | 3.2 | 9.7 | 0.00 | 0.00 | 0.00 | 93 | 1024.6 |
| 20260831112103 | 13 | 77 | 3.2 | 9.7 | 0.00 | 0.00 | 0.00 | 94 | 1024.6 |
| 20260831111602 | 13 | 77 | 3.2 | 9.7 | 0.00 | 0.00 | 0.00 | 94 | 1024.6 |
| 20260831111102 | 13 | 77 | 3.2 | 9.7 | 0.00 | 0.00 | 0.00 | 94 | 1024.6 |
| 20260831110603 | 12 | 77 | 3.2 | 9.7 | 0.00 | 0.00 | 0.00 | 94 | 1024.6 |
| 20260831105103 | 12 | 77 | 3.2 | 9.7 | 0.00 | 0.00 | 0.00 | 93 | 1024.6 |
| 20260831104603 | 12 | 77 | 3.2 | 9.7 | 0.00 | 0.00 | 0.00 | 93 | 1024.6 |
| 20260831104103 | 12 | 77 | 3.2 | 9.7 | 0.00 | 0.00 | 0.00 | 93 | 1024.6 |
| 20260831103603 | 12 | 77 | 3.2 | 9.7 | 0.00 | 0.00 | 0.00 | 93 | 1024.5 |
| 20260831103103 | 13 | 77 | 3.2 | 9.7 | 0.00 | 0.00 | 0.00 | 92 | 1024.5 |
| 20260831102602 | 13 | 77 | 3.2 | 9.7 | 0.00 | 0.00 | 0.00 | 92 | 1024.4 |
| 20260831102103 | 13 | 77 | 3.2 | 9.7 | 0.00 | 0.00 | 0.00 | 92 | 1024.4 |
| 20260831101103 | 13 | 77 | 3.2 | 9.7 | 0.00 | 0.00 | 0.00 | 93 | 1024.4 |
| 20260831100603 | 13 | 77 | 3.2 | 9.7 | 0.00 | 0.00 | 0.00 | 93 | 1024.4 |
| 20260831100103 | 13 | 77 | 3.2 | 9.7 | 0.00 | 0.00 | 0.00 | 93 | 1024.4 |
| 20260831095603 | 12 | 77 | 3.2 | 9.7 | 0.00 | 0.00 | 0.00 | 93 | 1024.4 |
| 20260831095103 | 12 | 77 | 3.2 | 9.7 | 0.00 | 0.00 | 0.00 | 93 | 1024.4 |
| 20260831094603 | 12 | 77 | 3.2 | 9.7 | 0.00 | 0.00 | 0.00 | 93 | 1024.3 |
| 20260831094103 | 12 | 77 | 3.2 | 9.7 | 0.00 | 0.00 | 0.00 | 93 | 1024.3 |
| 20260831093603 | 12 | 77 | 3.2 | 9.7 | 0.00 | 0.00 | 0.00 | 93 | 1024.3 |
| 20260831093103 | 12 | 77 | 3.2 | 9.7 | 0.00 | 0.00 | 0.00 | 93 | 1024.3 |
| 20260831092603 | 12 | 77 | 3.2 | 9.7 | 0.00 | 0.00 | 0.00 | 93 | 1024.3 |
| 20260831092102 | 13 | 77 | 3.2 | 9.7 | 0.00 | 0.00 | 0.00 | 93 | 1024.2 |
| 20260831091603 | 13 | 77 | 3.2 | 9.7 | 0.00 | 0.00 | 0.00 | 93 | 1024.3 |
| 20260831091103 | 13 | 77 | 3.2 | 9.7 | 0.00 | 0.00 | 0.00 | 93 | 1024.3 |
| 20260831090603 | 13 | 77 | 3.2 | 9.7 | 0.00 | 0.00 | 0.00 | 93 | 1024.2 |
| 20260831085602 | 13 | 77 | 3.2 | 9.7 | 0.00 | 0.00 | 0.00 | 94 | 1024.1 |
| 20260831085103 | 13 | 77 | 3.2 | 9.7 | 0.00 | 0.00 | 0.00 | 93 | 1024.2 |
| 20260831084102 | 13 | 77 | 3.2 | 9.7 | 0.00 | 0.00 | 0.00 | 93 | 1024.2 |
| 20260831083603 | 13 | 77 | 3.2 | 9.7 | 0.00 | 0.00 | 0.00 | 93 | 1024.2 |
| 20260831083103 | 13 | 77 | 3.2 | 9.7 | 0.00 | 0.00 | 0.00 | 93 | 1024.2 |
| 20260831082103 | 13 | 77 | 3.2 | 9.7 | 0.00 | 0.00 | 0.00 | 93 | 1024.2 |
| 20260831081603 | 13 | 77 | 3.2 | 9.7 | 0.00 | 0.00 | 0.00 | 94 | 1024.2 |
| 20260831081102 | 13 | 77 | 3.2 | 9.7 | 0.00 | 0.00 | 0.00 | 94 | 1024.2 |
| 20260831080603 | 13 | 77 | 3.2 | 9.7 | 0.00 | 0.00 | 0.00 | 93 | 1024.2 |
| 20260831075603 | 13 | 77 | 3.2 | 9.7 | 0.00 | 0.00 | 0.00 | 93 | 1024.3 |
| 20260831075103 | 13 | 77 | 3.2 | 9.7 | 0.00 | 0.00 | 0.00 | 93 | 1024.3 |
| 20260831074603 | 13 | 77 | 3.2 | 9.7 | 0.00 | 0.00 | 0.00 | 93 | 1024.3 |
| 20260831074103 | 13 | 77 | 3.2 | 9.7 | 0.00 | 0.00 | 0.00 | 93 | 1024.3 |
| 20260831073603 | 13 | 77 | 3.2 | 9.7 | 0.00 | 0.00 | 0.00 | 93 | 1024.3 |
| 20260831072602 | 13 | 77 | 3.2 | 9.7 | 0.00 | 0.00 | 0.00 | 92 | 1024.3 |
| 20260831071603 | 13 | 77 | 3.2 | 9.7 | 0.00 | 0.00 | 0.00 | 93 | 1024.3 |
| 20260831070603 | 13 | 77 | 3.2 | 9.7 | 0.00 | 0.00 | 0.00 | 93 | 1024.3 |
| 20260831065603 | 13 | 77 | 3.2 | 9.7 | 0.00 | 0.00 | 0.00 | 93 | 1024.4 |
| 20260831065102 | 13 | 77 | 3.2 | 9.7 | 0.00 | 0.00 | 0.00 | 92 | 1024.4 |
| 20260831064603 | 13 | 77 | 3.2 | 9.7 | 0.00 | 0.00 | 0.00 | 92 | 1024.4 |
| 20260831064103 | 14 | 77 | 3.2 | 9.7 | 0.00 | 0.00 | 0.00 | 92 | 1024.3 |
| 20260831063603 | 14 | 77 | 3.2 | 9.7 | 0.00 | 0.00 | 0.00 | 92 | 1024.3 |
| 20260831063103 | 14 | 77 | 3.2 | 9.7 | 0.00 | 0.00 | 0.00 | 92 | 1024.3 |
| 20260831062603 | 14 | 77 | 3.2 | 9.7 | 0.00 | 0.00 | 0.00 | 92 | 1024.3 |
| 20260831061602 | 14 | 77 | 3.2 | 9.7 | 0.00 | 0.00 | 0.00 | 92 | 1024.3 |
| 20260831061103 | 14 | 77 | 3.2 | 9.7 | 0.00 | 0.00 | 0.00 | 92 | 1024.3 |
| 20260831060603 | 14 | 77 | 3.2 | 9.7 | 0.00 | 0.00 | 0.00 | 92 | 1024.2 |
| 20260831055602 | 14 | 77 | 3.2 | 9.7 | 0.00 | 0.00 | 0.00 | 92 | 1024.2 |
| 20260831055103 | 15 | 77 | 3.2 | 9.7 | 0.00 | 0.00 | 0.00 | 92 | 1024.2 |
| 20260831054103 | 15 | 77 | 3.2 | 9.7 | 0.00 | 0.00 | 0.00 | 92 | 1024.3 |
| 20260831053603 | 15 | 77 | 3.2 | 9.7 | 0.00 | 0.00 | 0.00 | 92 | 1024.2 |
| 20260831053103 | 15 | 77 | 3.2 | 9.7 | 0.00 | 0.00 | 0.00 | 92 | 1024.2 |
| 20260831052602 | 15 | 77 | 3.2 | 9.7 | 0.00 | 0.00 | 0.00 | 91 | 1024.2 |
| 20260831052103 | 15 | 77 | 3.2 | 9.7 | 0.00 | 0.00 | 0.00 | 91 | 1024.3 |
| 20260831051603 | 15 | 77 | 3.2 | 9.7 | 0.00 | 0.00 | 0.00 | 90 | 1024.4 |
| 20260831051103 | 15 | 77 | 3.2 | 9.7 | 0.00 | 0.00 | 0.00 | 90 | 1024.3 |
| 20260831050602 | 15 | 77 | 3.2 | 9.7 | 0.00 | 0.00 | 0.00 | 89 | 1024.3 |
| 20260831050103 | 15 | 77 | 3.2 | 9.7 | 0.00 | 0.00 | 0.00 | 89 | 1024.3 |
| 20260831045103 | 15 | 77 | 3.2 | 9.7 | 0.00 | 0.00 | 0.00 | 90 | 1024.3 |
| 20260831044103 | 15 | 77 | 3.2 | 9.7 | 0.00 | 0.00 | 0.00 | 91 | 1024.1 |
| 20260831042603 | 15 | 77 | 3.2 | 9.7 | 0.00 | 0.00 | 0.00 | 93 | 1024.2 |
| 20260831042102 | 15 | 77 | 3.2 | 9.7 | 0.00 | 0.00 | 0.00 | 93 | 1024.3 |
| 20260831041603 | 15 | 77 | 3.2 | 9.7 | 0.00 | 0.00 | 0.00 | 93 | 1024.3 |
| 20260831041103 | 15 | 77 | 3.2 | 9.7 | 0.00 | 0.00 | 0.00 | 93 | 1024.3 |
| 20260831040603 | 15 | 77 | 3.2 | 9.7 | 0.00 | 0.00 | 0.00 | 93 | 1024.4 |
| 20260831035603 | 15 | 77 | 3.2 | 9.7 | 0.00 | 0.00 | 0.00 | 93 | 1024.5 |
| 20260831035103 | 15 | 77 | 3.2 | 9.7 | 0.00 | 0.00 | 0.00 | 92 | 1024.5 |
| 20260831034602 | 15 | 77 | 3.2 | 9.7 | 0.00 | 0.00 | 0.00 | 92 | 1024.6 |
| 20260831034102 | 15 | 77 | 3.2 | 9.7 | 0.00 | 0.00 | 0.00 | 92 | 1024.7 |
| 20260831033603 | 15 | 77 | 3.2 | 9.7 | 0.00 | 0.00 | 0.00 | 92 | 1024.6 |
| 20260831032603 | 15 | 77 | 3.2 | 9.7 | 0.00 | 0.00 | 0.00 | 92 | 1024.7 |
| 20260831032104 | 15 | 77 | 3.2 | 9.7 | 0.00 | 0.00 | 0.00 | 92 | 1024.7 |
| 20260831031603 | 15 | 77 | 3.2 | 9.7 | 0.00 | 0.00 | 0.00 | 92 | 1024.8 |
| 20260831031103 | 15 | 77 | 3.2 | 9.7 | 0.00 | 0.00 | 0.00 | 92 | 1024.8 |
| 20260831030603 | 15 | 77 | 3.2 | 9.7 | 0.00 | 0.00 | 0.00 | 92 | 1024.7 |
| 20260831025603 | 15 | 77 | 3.2 | 9.7 | 0.00 | 0.00 | 0.00 | 91 | 1024.6 |
| 20260831024603 | 16 | 77 | 3.2 | 9.7 | 0.00 | 0.00 | 0.00 | 91 | 1024.7 |
| 20260831023604 | 16 | 77 | 3.2 | 9.7 | 0.00 | 0.00 | 0.00 | 91 | 1024.6 |
| 20260831023103 | 16 | 77 | 3.2 | 9.7 | 0.00 | 0.00 | 0.00 | 91 | 1024.4 |
| 20260831022603 | 16 | 77 | 3.2 | 9.7 | 0.00 | 0.00 | 0.00 | 91 | 1024.3 |
| 20260831022102 | 16 | 77 | 3.2 | 9.7 | 0.00 | 0.00 | 0.00 | 90 | 1024.2 |
| 20260831021603 | 16 | 77 | 3.2 | 9.7 | 0.00 | 0.00 | 0.00 | 90 | 1024.2 |
| 20260831021103 | 16 | 77 | 3.2 | 9.7 | 0.00 | 0.00 | 0.00 | 88 | 1024.0 |
| 20260831020103 | 16 | 77 | 3.2 | 9.7 | 0.00 | 0.00 | 0.00 | 89 | 1023.8 |
| 20260831014603 | 16 | 77 | 3.2 | 9.7 | 0.00 | 0.00 | 0.00 | 91 | 1023.5 |
| 20260831013602 | 16 | 77 | 3.2 | 9.7 | 0.00 | 0.00 | 0.00 | 89 | 1023.4 |
| 20260831013102 | 16 | 77 | 3.2 | 9.7 | 0.00 | 0.00 | 0.00 | 88 | 1023.6 |
| 20260831012603 | 16 | 77 | 3.2 | 9.7 | 0.00 | 0.00 | 0.00 | 88 | 1023.6 |
| 20260831012103 | 16 | 77 | 3.2 | 9.7 | 0.00 | 0.00 | 0.00 | 87 | 1023.6 |
| 20260831011603 | 16 | 77 | 3.2 | 9.7 | 0.00 | 0.00 | 0.00 | 87 | 1023.6 |
| 20260831011103 | 16 | 77 | 3.2 | 9.7 | 0.00 | 0.00 | 0.00 | 87 | 1023.7 |
| 20260831010603 | 16 | 77 | 3.2 | 9.7 | 0.00 | 0.00 | 0.00 | 87 | 1023.7 |
| 20260831005103 | 18 | 77 | 3.2 | 9.7 | 0.00 | 0.00 | 0.00 | 80 | 1023.5 |
| 20260831004602 | 18 | 77 | 3.2 | 9.7 | 0.00 | 0.00 | 0.00 | 76 | 1023.6 |
| 20260831004103 | 18 | 77 | 3.2 | 9.7 | 0.00 | 0.00 | 0.00 | 72 | 1023.5 |
| 20260831003603 | 18 | 77 | 3.2 | 9.7 | 0.00 | 0.00 | 0.00 | 72 | 1023.5 |
| 20260831002602 | 19 | 77 | 3.2 | 9.7 | 0.00 | 0.00 | 0.00 | 69 | 1023.4 |
| 20260831002103 | 20 | 77 | 3.2 | 9.7 | 0.00 | 0.00 | 0.00 | 64 | 1023.4 |
| 20260831001602 | 20 | 77 | 3.2 | 9.7 | 0.00 | 0.00 | 0.00 | 65 | 1023.2 |
| 20260831001102 | 20 | 77 | 3.2 | 9.7 | 0.00 | 0.00 | 0.00 | 62 | 1023.2 |
| 20260831000603 | 21 | 77 | 3.2 | 9.7 | 0.00 | 0.00 | 0.00 | 60 | 1023.1 |
| 20260830235602 | 22 | 77 | 3.2 | 9.7 | 0.00 | 0.00 | 0.00 | 58 | 1023.0 |
| 20260830235103 | 22 | 77 | 3.2 | 9.7 | 0.00 | 0.00 | 0.00 | 58 | 1022.9 |
| 20260830234102 | 23 | 77 | 3.2 | 9.7 | 0.00 | 0.00 | 0.00 | 59 | 1022.5 |
| 20260830233603 | 23 | 77 | 3.2 | 9.7 | 0.00 | 0.00 | 0.00 | 59 | 1022.3 |
| 20260830233103 | 23 | 77 | 3.2 | 9.7 | 0.00 | 0.00 | 0.00 | 57 | 1022.3 |
| 20260830232603 | 23 | 77 | 3.2 | 9.7 | 0.00 | 0.00 | 0.00 | 57 | 1022.3 |
| 20260830232103 | 23 | 77 | 3.2 | 9.7 | 0.00 | 0.00 | 0.00 | 57 | 1022.2 |
| 20260830231603 | 23 | 77 | 3.2 | 9.7 | 0.00 | 0.00 | 0.00 | 58 | 1022.2 |
| 20260830231103 | 23 | 77 | 3.2 | 9.7 | 0.00 | 0.00 | 0.00 | 58 | 1022.0 |
| 20260830230602 | 23 | 77 | 3.2 | 9.7 | 0.00 | 0.00 | 0.00 | 57 | 1021.9 |
| 20260830230103 | 23 | 77 | 3.2 | 9.7 | 0.00 | 0.00 | 0.00 | 57 | 1022.0 |